User: anonymous   Login
Location: Griffin Ranch
(33.6186°N, 110.6622°W)
Time: 04:44:39
(UTC-07:00)
Language:

Cosmos 1812 - Orbit

View from above orbital plane
View from above orbital plane
View from above satellite
View from above satellite

Ground track
Ground track

The orbit data is extracted from the following two-line orbital elements,

1 17295U 87003A   16176.95351229 +.00001027 +00000-0 +55246-4 0  9995
2 17295 082.5151 136.2694 0001923 302.1214 057.9831 15.13796888604679
Epoch (UTC): 24 June 2016 22:53:03
Eccentricity: 0.0001923
inclination: 82.5151°
perigee height: 523 km
apogee height: 526 km
right ascension of ascending node: 136.2694°
argument of perigee: 302.1214°
revolutions per day: 15.13796888
mean anomaly at epoch: 57.9831°
orbit number at epoch: 60467

The dashed part of the orbit path shows where the satellite is in the earth's shadow,  

DLR